Location: La Oliva
(42.2466°N, 2.9955°E)
Time: 07:19:40
(UTC+00:00)

Cosmos 1869 - Pass Details

Date: 22 April 2021
Orbit: 518 x 563 km, 82.5° (Epoch: 07 May)

Event Time Altitude Azimuth Distance (km) Brightness Sun altitude
Exits shadow 20:47:57 61° 66° (ENE) 616 3.3 -21.7°
Drops below altitude 10° 20:51:33 10° 14° (NNE) 1,800 6.3 -22.1°
Sets 20:53:42 0° 12° (NNE) 2,688 7.3 -22.4°
